EW7186 Weather Reports


time (UTC)temp
C
wind
direction
speed
KPH
gust
KPH
rain 1hr
cm
rain 24hr
cm
rain mn
cm
humidity
%
barometer
mb
20260503224553 20 0 0.0 6.4 0.00 0.03 0.00 44 1016.1
20260503223052 20 0 3.2 16.1 0.00 0.03 0.00 41 1016.2
20260503221555 20 240 0.0 8.0 0.00 0.03 0.00 44 1016.1
20260503220053 20 338 1.6 9.7 0.00 0.03 0.00 46 1016.1
20260503214550 20 0 3.2 14.5 0.00 0.03 0.00 43 1016.3
20260503213051 20 0 0.0 12.9 0.00 0.03 0.00 41 1016.2
20260503211601 20 0 0.0 9.7 0.00 0.03 0.00 41 1016.3
20260503210050 20 0 1.6 9.7 0.00 0.03 0.00 41 1016.2
20260503204555 20 0 0.0 9.7 0.00 0.03 0.00 42 1016.3
20260503203105 19 0 0.0 8.0 0.00 0.03 0.00 48 1016.3
20260503201554 19 0 1.6 12.9 0.00 0.03 0.00 46 1016.8
20260503200053 18 0 3.2 8.0 0.00 0.03 0.00 45 1016.9
20260503194556 18 2 0.0 11.3 0.00 0.03 0.00 45 1017.1
20260503193054 18 316 0.0 12.9 0.00 0.03 0.00 48 1017.4
20260503191553 17 0 6.4 11.3 0.00 0.03 0.00 51 1017.7
20260503190053 17 0 0.0 9.7 0.00 0.03 0.00 51 1017.9
20260503184551 17 82 3.2 11.3 0.00 0.03 0.00 54 1018.2
20260503183053 17 68 4.8 11.3 0.00 0.03 0.00 55 1018.5
20260503181602 16 50 4.8 8.0 0.00 0.03 0.00 52 1018.8
20260503174557 16 51 4.8 8.0 0.00 0.03 0.00 54 1019.1
20260503173058 16 55 3.2 9.7 0.00 0.03 0.00 54 1019.2
20260503171554 15 53 6.4 9.7 0.00 0.03 0.00 55 1019.4
20260503081550 8 0 0.0 0.0 0.00 1.24 0.00 89 1016.6
20260503071603 9 0 0.0 0.0 0.00 1.32 0.00 88 1016.1
20260503060107 10 0 0.0 0.0 0.00 1.32 0.00 90 1016.0
20260503054556 10 0 0.0 0.0 0.00 1.32 0.00 90 1016.0
20260503053055 10 0 0.0 0.0 0.00 1.32 0.00 90 1015.9
20260503051555 10 0 0.0 0.0 0.00 1.32 0.00 91 1015.8
20260503050058 11 0 0.0 0.0 0.00 1.32 0.00 90 1015.8
20260503044605 11 0 0.0 0.0 0.00 1.32 0.00 91 1015.5
20260503043100 11 0 0.0 0.0 0.00 1.32 0.00 91 1015.3
20260503041604 11 0 0.0 0.0 0.00 1.32 0.00 91 1015.1
20260503040100 12 0 0.0 0.0 0.03 1.32 0.00 91 1015.1
20260503034555 11 0 0.0 3.2 0.03 1.32 1.32 91 1015.0
20260503033106 11 220 0.0 1.6 0.03 1.32 1.32 91 1015.1
20260503031600 12 0 0.0 0.0 0.03 1.32 1.32 91 1015.2
20260503030055 12 0 0.0 0.0 0.00 1.32 1.32 90 1015.4
20260503024554 12 0 0.0 4.8 0.00 1.32 1.32 89 1015.1
20260503023104 12 0 0.0 0.0 0.00 1.32 1.32 88 1015.3
20260503021555 12 0 0.0 1.6 0.00 1.32 1.32 88 1014.9
20260503020052 12 0 0.0 0.0 0.00 1.32 1.32 88 1014.5
20260503014549 12 0 0.0 0.0 0.00 1.32 1.32 87 1014.0
20260503013049 12 0 0.0 0.0 0.00 1.32 1.32 86 1013.5
20260503011602 12 0 0.0 0.0 0.00 1.32 1.32 86 1013.5
20260503010055 12 0 0.0 0.0 0.00 1.32 1.32 85 1013.1
20260503004548 12 0 0.0 0.0 0.00 1.32 1.32 85 1013.1
20260503003100 12 0 0.0 0.0 0.00 1.32 1.32 85 1012.9
20260503001553 13 0 0.0 0.0 0.00 1.32 1.32 84 1012.6
20260503000109 13 0 0.0 0.0 0.00 1.32 1.32 83 1012.4
20260502234554 13 0 0.0 0.0 0.00 1.32 1.32 81 1012.3
20260502233052 13 0 0.0 0.0 0.00 1.32 1.32 81 1012.0
20260502231549 14 0 0.0 4.8 0.00 1.32 1.32 80 1012.0
20260502230059 14 0 0.0 3.2 0.00 1.32 1.32 80 1011.8